Change the Weather History Date:

Thursday, October 31, 2013

  Actual Average (KTHA) Record (KTHA)
Temperature  
Mean Temperature 66 °F -  
Max Temperature 71 °F 69 °F 69 °F (2013)
Min Temperature 62 °F 46 °F 35 °F (2014)
Cooling Degree Days 2    
Growing Degree Days 16 (Base 50)    
Moisture  
Dew Point 59 °F    
Average Humidity 75    
Maximum Humidity 94    
Minimum Humidity 64    
Precipitation  
Precipitation 0.00 in - - ()
Sea Level Pressure  
Sea Level Pressure 29.92 in    
Wind  
Wind Speed 11 mph (South)    
Max Wind Speed 22 mph    
Max Gust Speed 34 mph    
Visibility 10 miles    
Events      
Averages and records for this station are not official NWS values.
T = Trace of Precipitation, MM = Missing Value Source: NWS Daily Summary

Daily Weather History Graph

Daily Weather History Graph

Search for Another Location

Airport or City:

Trip Planner

Search our weather history database for the weather conditions in past years. The results will help you decide how hot, cold, wet, or windy it might be!

Date:

Astronomy

Oct. 31, 2013 Rise Set
Actual Time 8:04 AM EDT 6:50 PM EDT
Civil Twilight 7:38 AM EDT 7:16 PM EDT
Nautical Twilight 7:08 AM EDT 7:46 PM EDT
Astronomical Twilight 6:39 AM EDT 8:16 PM EDT
Moon 5:00 AM EDT (10/31) 5:02 PM EDT (10/31)
Length of Visible Light 11h 38m
Length of Day
10h 45m
Waning Crescent, 10% of the Moon is Illuminated
Oct 31
Waning Crescent
Nov 3
New
Nov 10
First Quarter
Nov 17
Full
Nov 25
Last Quarter

Hourly Weather History & Observations

Time (EDT) Temp. Dew Point Humidity Pressure Visibility Wind Dir Wind Speed Gust Speed Precip Events Conditions
12:15 AM 64.4 °F 55.4 °F 73% 30.14 in 10.0 mi South 5.8 mph - N/A   Clear
12:35 AM 64.4 °F 55.4 °F 73% 30.14 in 10.0 mi South 8.1 mph - N/A   Clear
12:55 AM 64.4 °F 55.4 °F 73% 30.12 in 10.0 mi SSE 8.1 mph - N/A   Clear
1:35 AM 66.2 °F 55.4 °F 68% 30.11 in 10.0 mi SSE 10.4 mph - N/A   Scattered Clouds
1:55 AM 66.2 °F 53.6 °F 64% 30.10 in 10.0 mi South 11.5 mph - N/A   Clear
2:15 AM 66.2 °F 55.4 °F 68% 30.11 in 10.0 mi South 8.1 mph - N/A   Clear
2:35 AM 66.2 °F 53.6 °F 64% 30.09 in 10.0 mi SSE 9.2 mph - N/A   Clear
2:55 AM 66.2 °F 53.6 °F 64% 30.08 in 10.0 mi SSE 9.2 mph - N/A   Clear
3:15 AM 64.4 °F 53.6 °F 68% 30.08 in 10.0 mi SSE 11.5 mph - N/A   Clear
3:35 AM 64.4 °F 53.6 °F 68% 30.08 in 10.0 mi SSE 6.9 mph - N/A   Clear
3:55 AM 64.4 °F 53.6 °F 68% 30.07 in 10.0 mi SSE 8.1 mph - N/A   Clear
4:15 AM 64.4 °F 53.6 °F 68% 30.07 in 10.0 mi SSE 6.9 mph - N/A   Clear
4:35 AM 64.4 °F 53.6 °F 68% 30.06 in 10.0 mi SSE 8.1 mph - N/A   Clear
4:55 AM 64.4 °F 53.6 °F 68% 30.06 in 10.0 mi SSE 6.9 mph - N/A   Clear
5:15 AM 64.4 °F 53.6 °F 68% 30.07 in 10.0 mi SSE 5.8 mph - N/A   Clear
5:35 AM 64.4 °F 53.6 °F 68% 30.06 in 10.0 mi SSE 5.8 mph - N/A   Clear
5:55 AM 64.4 °F 53.6 °F 68% 30.06 in 10.0 mi South 5.8 mph - N/A   Clear
6:15 AM 64.4 °F 53.6 °F 68% 30.06 in 10.0 mi SSE 6.9 mph - N/A   Clear
6:35 AM 64.4 °F 53.6 °F 68% 30.05 in 10.0 mi SSE 6.9 mph - N/A   Clear
6:55 AM 64.4 °F 53.6 °F 68% 30.04 in 10.0 mi SSE 3.5 mph - N/A   Clear
7:15 AM 64.4 °F 53.6 °F 68% 30.03 in 10.0 mi SSE 9.2 mph - N/A   Partly Cloudy
7:35 AM 64.4 °F 53.6 °F 68% 30.02 in 10.0 mi SSE 9.2 mph - N/A   Mostly Cloudy
7:55 AM 64.4 °F 53.6 °F 68% 30.01 in 10.0 mi SSE 8.1 mph - N/A   Overcast
8:15 AM 64.4 °F 53.6 °F 68% 30.01 in 10.0 mi South 9.2 mph - N/A   Mostly Cloudy
8:35 AM 62.6 °F 55.4 °F 77% 30.02 in 10.0 mi South 9.2 mph - N/A   Overcast
8:55 AM 62.6 °F 55.4 °F 77% 30.01 in 10.0 mi SSE 9.2 mph - N/A   Overcast
9:15 AM 62.6 °F 55.4 °F 77% 30.01 in 10.0 mi SSE 8.1 mph - N/A   Overcast
10:35 AM 64.4 °F 57.2 °F 77% 30.00 in 10.0 mi SSE 12.7 mph - N/A   Mostly Cloudy
10:55 AM 64.4 °F 57.2 °F 77% 29.98 in 10.0 mi South 9.2 mph - N/A   Mostly Cloudy
11:15 AM 66.2 °F 57.2 °F 73% 29.99 in 10.0 mi South 9.2 mph - N/A   Mostly Cloudy
11:35 AM 66.2 °F 57.2 °F 73% 30.00 in 10.0 mi South 11.5 mph - N/A   Overcast
11:55 AM 66.2 °F 57.2 °F 73% 29.98 in 10.0 mi South 17.3 mph - N/A   Mostly Cloudy
12:15 PM 68.0 °F 59.0 °F 73% 29.97 in 10.0 mi South 16.1 mph - N/A   Mostly Cloudy
12:35 PM 68.0 °F 60.8 °F 78% 29.97 in 10.0 mi South 15.0 mph - N/A   Mostly Cloudy
12:55 PM 66.2 °F 60.8 °F 83% 29.96 in 10.0 mi South 16.1 mph - N/A   Mostly Cloudy
1:15 PM 68.0 °F 62.6 °F 83% 29.94 in 10.0 mi South 17.3 mph - N/A   Overcast
1:35 PM 69.8 °F 60.8 °F 73% 29.93 in 10.0 mi South 16.1 mph 28.8 mph N/A   Scattered Clouds
1:55 PM 68.0 °F 60.8 °F 78% 29.92 in 10.0 mi South 11.5 mph 24.2 mph N/A   Mostly Cloudy
2:15 PM 69.8 °F 60.8 °F 73% 29.90 in 10.0 mi South 16.1 mph - N/A   Mostly Cloudy
2:35 PM 69.8 °F 62.6 °F 78% 29.88 in 10.0 mi South 16.1 mph - N/A   Scattered Clouds
2:55 PM 71.6 °F 62.6 °F 73% 29.86 in 10.0 mi South 18.4 mph - N/A   Mostly Cloudy
3:15 PM 71.6 °F 62.6 °F 73% 29.86 in 10.0 mi South 19.6 mph - N/A   Mostly Cloudy
3:35 PM 69.8 °F 60.8 °F 73% 29.84 in 10.0 mi South 18.4 mph 28.8 mph N/A   Overcast
3:55 PM 69.8 °F 60.8 °F 73% 29.82 in 10.0 mi South 19.6 mph - N/A   Overcast
4:15 PM 71.6 °F 60.8 °F 69% 29.82 in 10.0 mi South 16.1 mph - N/A   Overcast
4:35 PM 71.6 °F 60.8 °F 69% 29.80 in 10.0 mi South 20.7 mph 34.5 mph N/A   Overcast
4:55 PM 71.6 °F 60.8 °F 69% 29.81 in 10.0 mi South 13.8 mph - N/A   Mostly Cloudy
5:15 PM 71.6 °F 60.8 °F 69% 29.81 in 10.0 mi South 15.0 mph 29.9 mph N/A   Mostly Cloudy
5:35 PM 71.6 °F 60.8 °F 69% 29.79 in 10.0 mi South 21.9 mph - N/A   Mostly Cloudy
5:55 PM 71.6 °F 60.8 °F 69% 29.79 in 10.0 mi South 18.4 mph - N/A   Overcast
6:15 PM 68.0 °F 62.6 °F 83% 29.78 in 8.0 mi South 16.1 mph - N/A   Overcast
6:35 PM 66.2 °F 62.6 °F 88% 29.78 in 10.0 mi South 16.1 mph - N/A   Overcast
6:55 PM 66.2 °F 62.6 °F 88% 29.77 in 9.0 mi South 16.1 mph - N/A   Overcast
7:15 PM 66.2 °F 62.6 °F 88% 29.78 in 10.0 mi South 13.8 mph - N/A   Mostly Cloudy
7:35 PM 66.2 °F 64.4 °F 94% 29.78 in 10.0 mi South 11.5 mph - N/A   Mostly Cloudy
7:55 PM 66.2 °F 64.4 °F 94% 29.78 in 8.0 mi South 11.5 mph - N/A   Overcast
8:15 PM 66.2 °F 64.4 °F 94% 29.77 in 10.0 mi SSW 9.2 mph - N/A   Overcast
8:35 PM 68.0 °F 64.4 °F 88% 29.75 in 10.0 mi South 12.7 mph 28.8 mph N/A   Overcast
8:55 PM 68.0 °F 64.4 °F 88% 29.70 in 10.0 mi South 18.4 mph 33.4 mph N/A   Mostly Cloudy
9:15 PM 69.8 °F 62.6 °F 78% 29.70 in 10.0 mi South 13.8 mph 32.2 mph N/A   Mostly Cloudy
9:35 PM 69.8 °F 62.6 °F 78% 29.70 in 10.0 mi SSW 17.3 mph 31.1 mph N/A   Scattered Clouds
9:55 PM 69.8 °F 62.6 °F 78% 29.72 in 10.0 mi SSW 19.6 mph 33.4 mph N/A   Mostly Cloudy
10:15 PM 69.8 °F 64.4 °F 83% 29.73 in 5.0 mi SSW 18.4 mph 27.6 mph N/A   Overcast
10:35 PM 66.2 °F 62.6 °F 88% 29.73 in 10.0 mi SSW 16.1 mph 24.2 mph N/A   Overcast
10:55 PM 69.8 °F 62.6 °F 78% 29.74 in 10.0 mi SSW 16.1 mph 24.2 mph N/A   Overcast
11:15 PM 69.8 °F 62.6 °F 78% 29.74 in 10.0 mi SW 20.7 mph 33.4 mph N/A   Overcast
11:35 PM 69.8 °F 60.8 °F 73% 29.74 in 10.0 mi SSW 19.6 mph 32.2 mph N/A   Mostly Cloudy
11:55 PM 69.8 °F 62.6 °F 78% 29.74 in 9.0 mi SSW 16.1 mph - N/A   Overcast